Flag for Ireland Weather past 2 weeks in Dublin, Ireland

34 °F

Passing clouds.

Feels Like: 28 °F
Forecast: 40 / 56 °F
Wind: 7 mph from West

Location: Dublin Airport

Current Time: Oct 13, 2015 at 9:17:10 AM

Latest Report: Oct 13, 2015 at 8:30 AM

Visibility: N/A

Pressure: 30.36 "Hg

Humidity: 100%

Dew point: 34 °F

Location of DublinLocation

Historic Weather in Dublin — Graph


Dublin temperature yesterday

Maximum temperature yesterday: 55 °F (at 2:00 PM)
Minimum temperature yesterday: 39 °F (at 10:30 PM)
Average temperature yesterday: 47 °F

Past Weeks' High & Low Weather Summary

High63 °F (Sep 29, 12:30 PM)100% (Sep 28, 8:00 AM)30.60 "Hg (Sep 28, 8:00 AM)
Low34 °F (Oct 4, 6:30 AM)55% (Oct 8, 4:30 PM)29.27 "Hg (Oct 5, 10:00 AM)
Average52 °F86%30.10 "Hg
* Reported Sep 28 8:00 AM — Oct 13 8:00 AM, Dublin, Weather by CustomWeather, © 2015

Note: Actual official high and low records may vary slightly from our data, if they occured in-between our weather recording intervals... More about our weather records


Dublin weather history for previous 24 hours

Time TempWeatherWind HumidityBarometerVisibility
8:00 AM
Tue, Oct 13
34 °FPassing clouds.5 mph100%30.36 "HgN/A
7:30 AM34 °FPassing clouds.7 mph100%30.36 "HgN/A
7:00 AM34 °FPassing clouds.7 mph100%30.36 "HgN/A
6:30 AM34 °FPassing clouds.6 mph100%30.33 "HgN/A
6:00 AM34 °FPassing clouds.5 mph100%30.33 "HgN/A
5:30 AM34 °FPassing clouds.5 mph100%30.33 "HgN/A
5:00 AM36 °FPassing clouds.7 mph100%30.33 "HgN/A
4:30 AM36 °FPassing clouds.6 mph93%30.33 "HgN/A
4:00 AM36 °FPassing clouds.5 mph100%30.33 "HgN/A
3:30 AM37 °FPassing clouds.8 mph93%30.33 "HgN/A
3:00 AM37 °FPassing clouds.6 mph100%30.33 "HgN/A
2:30 AM37 °FPassing clouds.5 mph93%30.33 "HgN/A
2:00 AM37 °FPassing clouds.6 mph100%30.33 "HgN/A
1:30 AM37 °FPassing clouds.7 mph100%30.33 "HgN/A
1:00 AM37 °FPassing clouds.9 mph93%30.33 "HgN/A
12:30 AM39 °FPassing clouds.8 mph93%30.33 "HgN/A
12:00 AM39 °FPassing clouds.9 mph93%30.33 "HgN/A
11:30 PM
Mon, Oct 12
39 °FPassing clouds.9 mph93%30.33 "HgN/A
11:00 PM39 °FPassing clouds.10 mph93%30.33 "HgN/A
10:30 PM39 °FPassing clouds.8 mph93%30.33 "HgN/A
10:00 PM41 °FPassing clouds.7 mph87%30.33 "HgN/A
9:30 PM43 °FPassing clouds.9 mph87%30.33 "HgN/A
9:00 PM41 °FPassing clouds.9 mph93%30.33 "HgN/A
8:30 PM41 °FPassing clouds.8 mph87%30.33 "HgN/A
8:00 PM41 °FPassing clouds.7 mph87%30.30 "HgN/A
7:30 PM45 °FPassing clouds.6 mph76%30.30 "HgN/A
7:00 PM46 °FPassing clouds.5 mph71%30.30 "HgN/A
6:30 PM48 °FPassing clouds.8 mph66%30.30 "HgN/A
6:00 PM50 °FPassing clouds.7 mph67%30.30 "HgN/A
5:30 PM52 °FPassing clouds.9 mph62%30.27 "HgN/A
5:00 PM52 °FPassing clouds.10 mph62%30.27 "HgN/A
4:30 PM54 °FPassing clouds.13 mph58%30.27 "HgN/A
4:00 PM54 °FScattered clouds.14 mph63%30.27 "HgN/A
3:30 PM54 °FPassing clouds.15 mph63%30.27 "HgN/A
3:00 PM54 °FPassing clouds.14 mph58%30.27 "HgN/A
2:30 PM55 °FPassing clouds.14 mph63%30.27 "HgN/A
2:00 PM55 °FPassing clouds.13 mph63%30.27 "HgN/A
1:30 PM54 °FPassing clouds.14 mph63%30.27 "HgN/A
1:00 PM54 °FPassing clouds.15 mph63%30.27 "HgN/A
12:30 PM54 °FPassing clouds.13 mph67%30.27 "HgN/A
12:00 PM54 °FPassing clouds.13 mph72%30.27 "HgN/A
11:30 AM52 °FPassing clouds.13 mph77%30.27 "HgN/A
11:00 AM50 °FPassing clouds.14 mph82%30.27 "HgN/A
10:30 AM48 °FPassing clouds.12 mph87%30.27 "HgN/A
10:00 AM48 °FPassing clouds.12 mph87%30.27 "HgN/A
9:30 AM46 °FPassing clouds.12 mph87%30.24 "HgN/A
9:00 AM45 °FScattered clouds.9 mph93%30.24 "HgN/A
Weather by CustomWeather, © 2015

See weather overviewHow to use our weather pages